Flag for Germany Past Weather in Georgsmarienhütte, Lower Saxony, Germany — Yesterday and Last 2 Weeks

Now
63 °F

Broken clouds.


Feels Like: 63 °F
Forecast: 59 / 72 °F
Wind: 2 mph from North

Location: Muenster / Osnabrueck

Current Time: Jul 28, 2016 at 8:54:11 AM

Latest Report: Jul 28, 2016 at 8:20 AM


Visibility: N/A

Pressure: 29.98 "Hg

Humidity: 88%

Dew Point: 59 °F

Location of GeorgsmarienhütteLocation

Past Weather in Georgsmarienhütte — Graph

°F

Georgsmarienhütte Temperature Yesterday

Maximum temperature yesterday: 75 °F (at 5:20 PM)
Minimum temperature yesterday: 63 °F (at 3:50 AM)
Average temperature yesterday: 68 °F

High & Low Weather Summary for the Past Weeks

 TemperatureHumidityPressure
High93 °F (Jul 20, 3:50 PM)100% (Jul 16, 1:50 AM)30.27 "Hg (Jul 16, 1:50 AM)
Low48 °F (Jul 14, 5:20 AM)23% (Jul 19, 12:50 PM)29.83 "Hg (Jul 20, 6:50 PM)
Average68 °F72%30.08 "Hg
* Reported Jul 13 7:20 AM — Jul 28 7:20 AM, Georgsmarienhütte, Weather by CustomWeather, © 2016

Note: Actual official high and low records may vary slightly from our data, if they occured in-between our weather recording intervals... More about our weather records

Advertising

Georgsmarienhütte Weather History for the Previous 24 Hours

Scroll right to see more
 ConditionsComfort  
Time TempWeatherWind HumidityBarometerVisibility
7:20 AM
Thu, Jul 28
63 °FBroken clouds.1 mph88%29.98 "HgN/A
6:50 AM61 °FPartly sunny.1 mph94%29.98 "HgN/A
6:20 AM61 °FPassing clouds.2 mph94%29.98 "Hg6 mi
5:50 AM59 °FFog.No wind94%29.98 "HgN/A
5:20 AM61 °FClear.2 mph94%30.01 "Hg10 mi
4:50 AM63 °FClear.2 mph88%30.01 "Hg10 mi
4:20 AM61 °FClear.3 mph94%30.01 "Hg10 mi
3:50 AM61 °FClear.5 mph88%30.01 "Hg10 mi
3:20 AM63 °FPassing clouds.7 mph88%30.01 "HgN/A
2:50 AM64 °FPassing clouds.9 mph88%30.01 "HgN/A
2:20 AM64 °FPassing clouds.6 mph88%30.01 "HgN/A
1:50 AM64 °FPassing clouds.7 mph88%30.01 "HgN/A
1:20 AM64 °FPassing clouds.7 mph88%30.01 "HgN/A
12:50 AM64 °FPassing clouds.7 mph88%30.01 "HgN/A
12:20 AM64 °FPassing clouds.6 mph88%30.01 "Hg6 mi
11:50 PM
Wed, Jul 27
63 °FPassing clouds.6 mph94%30.01 "Hg5 mi
11:20 PM64 °FPassing clouds.8 mph88%30.01 "Hg2 mi
10:50 PM64 °FLight rain. Passing clouds.9 mph88%30.01 "Hg5 mi
10:20 PM66 °FPartly sunny.10 mph78%30.01 "HgN/A
9:50 PM68 °FLight rain. Partly sunny.10 mph73%30.01 "HgN/A
9:20 PM68 °FPartly sunny.10 mph69%30.01 "HgN/A
8:50 PM70 °FPartly sunny.7 mph64%29.98 "HgN/A
8:20 PM70 °FBroken clouds.12 mph64%29.98 "HgN/A
7:50 PM70 °FSunny.8 mph60%29.98 "Hg10 mi
7:20 PM72 °FPartly sunny.9 mph57%29.98 "HgN/A
6:50 PM72 °FPartly sunny.14 mph57%29.98 "HgN/A
6:20 PM72 °FPartly sunny.14 mph57%29.98 "HgN/A
5:50 PM73 °FPartly sunny.16 mph50%29.98 "HgN/A
5:20 PM75 °FBroken clouds.14 mph50%29.98 "HgN/A
4:50 PM73 °FPartly sunny.15 mph47%29.98 "HgN/A
4:20 PM73 °FPartly sunny.14 mph47%29.98 "HgN/A
3:50 PM73 °FPartly sunny.15 mph47%29.98 "HgN/A
3:20 PM73 °FPartly sunny.14 mph47%29.98 "HgN/A
2:50 PM73 °FPartly sunny.15 mph53%29.98 "HgN/A
2:20 PM72 °FPartly sunny.10 mph53%29.98 "HgN/A
1:50 PM72 °FBroken clouds.14 mph57%30.01 "HgN/A
1:20 PM73 °FScattered clouds.13 mph53%30.01 "HgN/A
12:50 PM72 °FScattered clouds.14 mph57%30.01 "HgN/A
12:20 PM73 °FScattered clouds.12 mph57%30.01 "HgN/A
11:50 AM72 °FBroken clouds.12 mph61%30.01 "HgN/A
11:20 AM72 °FBroken clouds.8 mph65%30.01 "HgN/A
10:50 AM72 °FBroken clouds.8 mph65%30.01 "HgN/A
10:20 AM70 °FBroken clouds.6 mph73%30.01 "HgN/A
9:50 AM68 °FBroken clouds.7 mph73%30.01 "HgN/A
9:20 AM66 °FBroken clouds.5 mph78%30.04 "HgN/A
8:50 AM66 °FPassing clouds.5 mph78%30.01 "HgN/A
8:20 AM64 °FPassing clouds.5 mph83%30.01 "HgN/A
Weather by CustomWeather, © 2016

See weather overviewHow to use our weather pages